| time (UTC) | temp F | wind direction | speed knots | gust knots | rain 1hr in | rain 24hr in | rain mn in | humidity % | barometer mb |
| 20260506202058 | 57 | 98 | 1.7 | 5.2 | 0.06 | 0.19 | 0.19 | 100 | 1006.4 |
| 20260506201538 | 57 | 180 | 2.6 | 9.6 | 0.06 | 0.19 | 0.19 | 100 | 1006.5 |
| 20260506201038 | 57 | 94 | 2.6 | 9.6 | 0.06 | 0.19 | 0.19 | 100 | 1006.5 |
| 20260506200543 | 57 | 118 | 2.6 | 6.1 | 0.05 | 0.18 | 0.18 | 100 | 1006.5 |
| 20260506200042 | 57 | 136 | 1.7 | 7.0 | 0.06 | 0.18 | 0.18 | 100 | 1006.6 |
| 20260506195544 | 57 | 158 | 3.5 | 10.4 | 0.06 | 0.18 | 0.18 | 100 | 1006.6 |
| 20260506195044 | 57 | 157 | 2.6 | 10.4 | 0.06 | 0.17 | 0.17 | 100 | 1006.7 |
| 20260506194524 | 57 | 106 | 1.7 | 5.2 | 0.06 | 0.17 | 0.17 | 100 | 1006.8 |
| 20260506194105 | 57 | 152 | 1.7 | 5.2 | 0.05 | 0.16 | 0.16 | 100 | 1006.9 |
| 20260506193524 | 57 | 111 | 1.7 | 7.0 | 0.04 | 0.15 | 0.15 | 100 | 1006.9 |
| 20260506193025 | 56 | 153 | 2.6 | 7.0 | 0.03 | 0.14 | 0.14 | 100 | 1007.0 |
| 20260506192546 | 57 | 138 | 0.9 | 5.2 | 0.02 | 0.13 | 0.13 | 100 | 1007.0 |
| 20260506192025 | 57 | 158 | 1.7 | 6.1 | 0.02 | 0.13 | 0.13 | 100 | 1007.0 |
| 20260506191525 | 57 | 169 | 2.6 | 6.1 | 0.02 | 0.13 | 0.13 | 100 | 1007.0 |
| 20260506191044 | 57 | 166 | 2.6 | 8.7 | 0.03 | 0.13 | 0.13 | 100 | 1007.0 |
| 20260506190524 | 57 | 134 | 2.6 | 7.8 | 0.03 | 0.13 | 0.13 | 100 | 1007.1 |
| 20260506190024 | 57 | 143 | 1.7 | 8.7 | 0.02 | 0.12 | 0.12 | 100 | 1007.1 |
| 20260506185530 | 57 | 149 | 3.5 | 8.7 | 0.03 | 0.12 | 0.12 | 100 | 1007.2 |
| 20260506185030 | 58 | 94 | 1.7 | 7.0 | 0.02 | 0.11 | 0.11 | 100 | 1007.3 |
| 20260506184550 | 58 | 162 | 1.7 | 7.0 | 0.03 | 0.11 | 0.11 | 100 | 1007.4 |
| 20260506184029 | 58 | 140 | 1.7 | 6.1 | 0.03 | 0.11 | 0.11 | 100 | 1007.3 |
| 20260506183550 | 58 | 136 | 2.6 | 7.8 | 0.03 | 0.11 | 0.11 | 100 | 1007.3 |
| 20260506182539 | 58 | 161 | 3.5 | 7.8 | 0.04 | 0.11 | 0.11 | 100 | 1007.4 |
| 20260506182101 | 58 | 120 | 1.7 | 6.1 | 0.04 | 0.11 | 0.11 | 100 | 1007.4 |
| 20260506181539 | 58 | 179 | 2.6 | 6.1 | 0.04 | 0.11 | 0.11 | 100 | 1007.6 |
| 20260506181040 | 58 | 176 | 1.7 | 6.1 | 0.04 | 0.10 | 0.10 | 100 | 1007.6 |
| 20260506180540 | 58 | 166 | 1.7 | 8.7 | 0.05 | 0.10 | 0.10 | 100 | 1007.6 |
| 20260506180100 | 58 | 169 | 4.3 | 8.7 | 0.06 | 0.10 | 0.10 | 100 | 1007.6 |
| 20260506175540 | 58 | 158 | 3.5 | 6.1 | 0.06 | 0.09 | 0.09 | 100 | 1007.4 |
| 20260506175041 | 58 | 144 | 3.5 | 5.2 | 0.07 | 0.09 | 0.09 | 100 | 1007.4 |
| 20260506174602 | 59 | 170 | 3.5 | 6.1 | 0.07 | 0.08 | 0.08 | 100 | 1007.5 |
| 20260506174102 | 59 | 163 | 2.6 | 8.7 | 0.07 | 0.08 | 0.08 | 100 | 1007.6 |
| 20260506173542 | 59 | 134 | 3.5 | 12.2 | 0.08 | 0.08 | 0.08 | 100 | 1007.5 |
| 20260506173042 | 59 | 162 | 2.6 | 12.2 | 0.08 | 0.08 | 0.08 | 100 | 1007.5 |
| 20260506172542 | 59 | 151 | 2.6 | 5.2 | 0.07 | 0.07 | 0.07 | 100 | 1007.7 |
| 20260506172043 | 59 | 126 | 2.6 | 3.5 | 0.07 | 0.07 | 0.07 | 100 | 1007.7 |
| 20260506171543 | 59 | 158 | 1.7 | 2.6 | 0.06 | 0.06 | 0.06 | 100 | 1007.9 |
| 20260506171104 | 59 | 158 | 1.7 | 6.1 | 0.06 | 0.06 | 0.06 | 100 | 1008.2 |
| 20260506170527 | 59 | 146 | 2.6 | 3.5 | 0.05 | 0.05 | 0.05 | 100 | 1008.4 |
| 20260506170028 | 59 | 147 | 1.7 | 4.3 | 0.04 | 0.04 | 0.04 | 100 | 1008.4 |
| 20260506165528 | 60 | 146 | 0.9 | 2.6 | 0.03 | 0.03 | 0.03 | 100 | 1008.7 |
| 20260506165028 | 60 | 152 | 1.7 | 4.3 | 0.02 | 0.02 | 0.02 | 100 | 1008.9 |
| 20260506164529 | 61 | 153 | 1.7 | 4.3 | 0.01 | 0.01 | 0.01 | 100 | 1009.0 |
| 20260506164029 | 61 | 109 | 1.7 | 4.3 | 0.00 | 0.00 | 0.00 | 100 | 1008.9 |
| 20260506163530 | 61 | 178 | 1.7 | 7.0 | 0.00 | 0.00 | 0.00 | 100 | 1008.9 |
| 20260506163029 | 62 | 145 | 2.6 | 7.8 | 0.00 | 0.00 | 0.00 | 100 | 1008.9 |
| 20260506162551 | 62 | 144 | 3.5 | 7.8 | 0.00 | 0.00 | 0.00 | 100 | 1008.8 |
| 20260506162030 | 62 | 111 | 1.7 | 6.1 | 0.00 | 0.00 | 0.00 | 100 | 1008.7 |
| 20260506161531 | 62 | 112 | 2.6 | 7.8 | 0.00 | 0.00 | 0.00 | 100 | 1008.8 |
| 20260506161051 | 63 | 160 | 3.5 | 7.8 | 0.00 | 0.00 | 0.00 | 100 | 1008.7 |
| 20260506160532 | 63 | 129 | 2.6 | 7.0 | 0.00 | 0.00 | 0.00 | 100 | 1008.7 |
| 20260506160032 | 64 | 175 | 2.6 | 6.1 | 0.00 | 0.00 | 0.00 | 100 | 1008.8 |
| 20260506155526 | 64 | 166 | 2.6 | 7.8 | 0.00 | 0.00 | 0.00 | 99 | 1008.9 |
| 20260506155028 | 64 | 126 | 4.3 | 13.0 | 0.00 | 0.00 | 0.00 | 99 | 1008.9 |
| 20260506154529 | 64 | 167 | 2.6 | 13.0 | 0.00 | 0.00 | 0.00 | 99 | 1009.0 |
| 20260506153540 | 64 | 155 | 2.6 | 8.7 | 0.00 | 0.00 | 0.00 | 98 | 1009.2 |
| 20260506153041 | 64 | 206 | 3.5 | 8.7 | 0.00 | 0.00 | 0.00 | 96 | 1009.2 |
| 20260506152526 | 63 | 157 | 3.5 | 7.8 | 0.00 | 0.00 | 0.00 | 97 | 1009.3 |
| 20260506152044 | 63 | 156 | 2.6 | 7.0 | 0.00 | 0.00 | 0.00 | 97 | 1009.2 |
| 20260506151525 | 64 | 90 | 2.6 | 5.2 | 0.00 | 0.00 | 0.00 | 97 | 1009.2 |
| 20260506151026 | 63 | 115 | 1.7 | 6.1 | 0.00 | 0.00 | 0.00 | 98 | 1009.3 |
| 20260506150547 | 63 | 120 | 2.6 | 6.1 | 0.00 | 0.00 | 0.00 | 98 | 1009.3 |
| 20260506150026 | 63 | 216 | 1.7 | 5.2 | 0.00 | 0.00 | 0.00 | 98 | 1009.3 |
| 20260506145527 | 63 | 273 | 1.7 | 9.6 | 0.00 | 0.00 | 0.00 | 98 | 1009.4 |
| 20260506145027 | 63 | 154 | 4.3 | 9.6 | 0.00 | 0.00 | 0.00 | 97 | 1009.3 |
| 20260506144528 | 63 | 123 | 4.3 | 7.8 | 0.00 | 0.00 | 0.00 | 98 | 1009.4 |
| 20260506144027 | 63 | 206 | 4.3 | 7.0 | 0.00 | 0.00 | 0.00 | 98 | 1009.4 |
| 20260506143528 | 63 | 10 | 2.6 | 7.8 | 0.00 | 0.00 | 0.00 | 98 | 1009.5 |
| 20260506143029 | 63 | 313 | 1.7 | 7.8 | 0.00 | 0.00 | 0.00 | 99 | 1009.5 |
| 20260506142530 | 63 | 113 | 2.6 | 6.1 | 0.00 | 0.00 | 0.00 | 99 | 1009.4 |
| 20260506142030 | 62 | 154 | 3.5 | 7.8 | 0.00 | 0.00 | 0.00 | 98 | 1009.5 |
| 20260506141536 | 62 | 148 | 3.5 | 7.8 | 0.00 | 0.00 | 0.00 | 99 | 1009.6 |
| 20260506141034 | 62 | 235 | 3.5 | 7.8 | 0.00 | 0.00 | 0.00 | 98 | 1009.6 |
| 20260506140554 | 62 | 157 | 3.5 | 7.0 | 0.00 | 0.00 | 0.00 | 99 | 1009.5 |
| 20260506140034 | 62 | 138 | 5.2 | 7.8 | 0.00 | 0.00 | 0.00 | 98 | 1009.4 |
| 20260506135535 | 62 | 148 | 3.5 | 7.8 | 0.00 | 0.00 | 0.00 | 99 | 1009.3 |
| 20260506135055 | 62 | 135 | 2.6 | 6.1 | 0.00 | 0.00 | 0.00 | 99 | 1009.4 |
| 20260506134556 | 61 | 95 | 1.7 | 7.0 | 0.00 | 0.00 | 0.00 | 100 | 1009.4 |
| 20260506134035 | 61 | 162 | 2.6 | 7.8 | 0.00 | 0.00 | 0.00 | 99 | 1009.4 |
| 20260506133556 | 61 | 148 | 3.5 | 12.2 | 0.00 | 0.00 | 0.00 | 99 | 1009.5 |
| 20260506133035 | 60 | 159 | 3.5 | 12.2 | 0.00 | 0.00 | 0.00 | 100 | 1009.3 |
| 20260506132535 | 60 | 137 | 1.7 | 9.6 | 0.00 | 0.00 | 0.00 | 100 | 1009.2 |
| 20260506132035 | 60 | 151 | 3.5 | 6.1 | 0.00 | 0.00 | 0.00 | 100 | 1009.2 |
| 20260506131536 | 60 | 167 | 2.6 | 7.8 | 0.00 | 0.00 | 0.00 | 100 | 1009.2 |
| 20260506131036 | 60 | 143 | 1.7 | 7.0 | 0.00 | 0.00 | 0.00 | 100 | 1009.4 |
| 20260506130537 | 59 | 148 | 2.6 | 7.8 | 0.00 | 0.00 | 0.00 | 100 | 1009.4 |
| 20260506130036 | 59 | 126 | 2.6 | 7.8 | 0.00 | 0.00 | 0.00 | 100 | 1009.5 |
| 20260506125537 | 59 | 141 | 1.7 | 6.1 | 0.00 | 0.04 | 0.00 | 100 | 1009.5 |
| 20260506125042 | 59 | 5 | 1.7 | 5.2 | 0.00 | 0.04 | 0.00 | 100 | 1009.4 |
| 20260506124543 | 58 | 140 | 1.7 | 4.3 | 0.00 | 0.04 | 0.00 | 100 | 1009.4 |
| 20260506124042 | 58 | 165 | 2.6 | 5.2 | 0.00 | 0.04 | 0.00 | 100 | 1009.6 |
| 20260506123543 | 58 | 143 | 2.6 | 4.3 | 0.00 | 0.04 | 0.00 | 100 | 1009.5 |
| 20260506123103 | 58 | 146 | 1.7 | 3.5 | 0.00 | 0.04 | 0.00 | 100 | 1009.7 |
| 20260506122543 | 58 | 142 | 0.9 | 6.1 | 0.00 | 0.04 | 0.00 | 100 | 1009.9 |
| 20260506122104 | 58 | 142 | 1.7 | 7.8 | 0.00 | 0.04 | 0.00 | 100 | 1009.9 |
| 20260506121524 | 58 | 160 | 3.5 | 7.8 | 0.00 | 0.04 | 0.00 | 100 | 1009.8 |
| 20260506121024 | 58 | 99 | 1.7 | 5.2 | 0.00 | 0.04 | 0.00 | 100 | 1009.9 |
| 20260506120546 | 58 | 143 | 1.7 | 6.1 | 0.00 | 0.04 | 0.00 | 100 | 1009.8 |
| 20260506120025 | 57 | 140 | 1.7 | 6.1 | 0.00 | 0.04 | 0.00 | 100 | 1009.8 |
| 20260506115525 | 57 | 178 | 2.6 | 6.1 | 0.00 | 0.04 | 0.00 | 100 | 1009.8 |
| 20260506115024 | 57 | 128 | 3.5 | 7.0 | 0.00 | 0.04 | 0.00 | 100 | 1009.7 |
| 20260506114543 | 56 | 158 | 2.6 | 7.0 | 0.00 | 0.04 | 0.00 | 100 | 1009.6 |
| 20260506114024 | 56 | 159 | 2.6 | 7.0 | 0.00 | 0.04 | 0.00 | 100 | 1009.7 |
| 20260506113524 | 56 | 167 | 2.6 | 7.0 | 0.00 | 0.04 | 0.00 | 100 | 1009.8 |
| 20260506113029 | 56 | 173 | 1.7 | 7.0 | 0.00 | 0.04 | 0.00 | 100 | 1009.7 |
| 20260506112529 | 56 | 132 | 1.7 | 3.5 | 0.00 | 0.04 | 0.00 | 100 | 1009.7 |
| 20260506112029 | 56 | 131 | 1.7 | 7.0 | 0.00 | 0.04 | 0.00 | 100 | 1009.8 |
| 20260506111529 | 56 | 78 | 3.5 | 7.0 | 0.00 | 0.04 | 0.00 | 100 | 1009.8 |
| 20260506111029 | 55 | 141 | 1.7 | 6.1 | 0.00 | 0.04 | 0.00 | 100 | 1009.7 |
| 20260506110529 | 55 | 150 | 2.6 | 7.0 | 0.00 | 0.04 | 0.00 | 100 | 1009.7 |
| 20260506110030 | 55 | 180 | 2.6 | 7.0 | 0.00 | 0.04 | 0.00 | 100 | 1009.7 |
| 20260506105529 | 55 | 160 | 3.5 | 7.0 | 0.00 | 0.04 | 0.00 | 100 | 1009.7 |
| 20260506105030 | 55 | 128 | 2.6 | 7.0 | 0.00 | 0.04 | 0.00 | 100 | 1009.8 |
| 20260506104550 | 54 | 175 | 2.6 | 7.0 | 0.00 | 0.04 | 0.00 | 100 | 1009.8 |
| 20260506104029 | 54 | 178 | 1.7 | 3.5 | 0.00 | 0.04 | 0.00 | 100 | 1009.9 |
| 20260506103101 | 53 | 162 | 1.7 | 4.3 | 0.00 | 0.04 | 0.00 | 100 | 1009.7 |
| 20260506102600 | 53 | 113 | 1.7 | 5.2 | 0.00 | 0.04 | 0.00 | 100 | 1009.7 |
| 20260506102101 | 52 | 98 | 0.0 | 4.3 | 0.00 | 0.04 | 0.00 | 100 | 1009.7 |
| 20260506101540 | 52 | 161 | 0.9 | 6.1 | 0.00 | 0.04 | 0.00 | 100 | 1009.8 |
| 20260506101041 | 52 | 149 | 0.9 | 5.2 | 0.00 | 0.04 | 0.00 | 100 | 1009.7 |
| 20260506100541 | 52 | 149 | 1.7 | 4.3 | 0.00 | 0.04 | 0.00 | 100 | 1009.6 |
| 20260506100043 | 52 | 149 | 0.0 | 2.6 | 0.00 | 0.04 | 0.00 | 100 | 1009.6 |
| 20260506095525 | 52 | 149 | 0.9 | 4.3 | 0.00 | 0.04 | 0.00 | 100 | 1009.6 |
| 20260506095025 | 52 | 149 | 0.9 | 4.3 | 0.00 | 0.04 | 0.00 | 100 | 1009.6 |
| 20260506094524 | 51 | 150 | 1.7 | 4.3 | 0.00 | 0.04 | 0.00 | 100 | 1009.5 |
| 20260506094046 | 51 | 148 | 0.9 | 5.2 | 0.00 | 0.04 | 0.00 | 100 | 1009.6 |
| 20260506093544 | 51 | 123 | 0.9 | 5.2 | 0.00 | 0.04 | 0.00 | 100 | 1009.5 |
| 20260506093046 | 52 | 87 | 0.9 | 2.6 | 0.00 | 0.04 | 0.00 | 100 | 1009.6 |
| 20260506092524 | 52 | 85 | 0.9 | 2.6 | 0.00 | 0.04 | 0.00 | 100 | 1009.5 |
| 20260506092025 | 52 | 190 | 1.7 | 5.2 | 0.00 | 0.04 | 0.00 | 100 | 1009.4 |
| 20260506091524 | 52 | 154 | 1.7 | 6.1 | 0.00 | 0.04 | 0.00 | 100 | 1009.5 |
| 20260506091044 | 52 | 142 | 1.7 | 6.1 | 0.00 | 0.04 | 0.00 | 100 | 1009.5 |
| 20260506090542 | 52 | 134 | 1.7 | 4.3 | 0.00 | 0.04 | 0.00 | 100 | 1009.5 |
| 20260506090043 | 52 | 143 | 1.7 | 4.3 | 0.00 | 0.04 | 0.00 | 100 | 1009.6 |
| 20260506085543 | 52 | 184 | 1.7 | 3.5 | 0.00 | 0.04 | 0.00 | 100 | 1009.6 |
| 20260506085104 | 52 | 186 | 1.7 | 3.5 | 0.00 | 0.04 | 0.00 | 100 | 1009.6 |
| 20260506084543 | 53 | 190 | 1.7 | 5.2 | 0.00 | 0.04 | 0.00 | 100 | 1009.6 |
| 20260506084024 | 53 | 150 | 1.7 | 5.2 | 0.00 | 0.04 | 0.00 | 100 | 1009.6 |
| 20260506083545 | 53 | 180 | 2.6 | 5.2 | 0.00 | 0.04 | 0.00 | 100 | 1009.6 |
| 20260506083025 | 53 | 173 | 1.7 | 5.2 | 0.00 | 0.04 | 0.00 | 100 | 1009.7 |
| 20260506082541 | 53 | 173 | 2.6 | 6.1 | 0.00 | 0.04 | 0.00 | 100 | 1009.6 |
| 20260506082037 | 53 | 167 | 2.6 | 6.1 | 0.00 | 0.04 | 0.00 | 100 | 1009.7 |
| 20260506081532 | 53 | 149 | 1.7 | 7.0 | 0.00 | 0.04 | 0.00 | 100 | 1009.7 |
| 20260506081027 | 53 | 172 | 3.5 | 7.0 | 0.00 | 0.04 | 0.00 | 100 | 1009.8 |
| 20260506080544 | 53 | 184 | 2.6 | 6.1 | 0.00 | 0.04 | 0.00 | 100 | 1009.7 |
| 20260506073034 | 53 | 180 | 3.5 | 6.1 | 0.00 | 0.04 | 0.00 | 100 | 1009.8 |
| 20260506072529 | 53 | 194 | 1.7 | 3.5 | 0.00 | 0.04 | 0.00 | 100 | 1009.7 |
| 20260506072045 | 53 | 146 | 1.7 | 2.6 | 0.00 | 0.04 | 0.00 | 100 | 1009.7 |
| 20260506071541 | 53 | 190 | 1.7 | 2.6 | 0.00 | 0.04 | 0.00 | 100 | 1009.7 |
| 20260506070524 | 53 | 194 | 1.7 | 7.0 | 0.00 | 0.04 | 0.00 | 100 | 1009.7 |
| 20260506062025 | 54 | 148 | 0.9 | 2.6 | 0.00 | 0.04 | 0.00 | 100 | 1009.7 |
| 20260506061526 | 55 | 148 | 1.7 | 2.6 | 0.00 | 0.04 | 0.00 | 100 | 1009.8 |
| 20260506061025 | 54 | 153 | 1.7 | 2.6 | 0.00 | 0.04 | 0.00 | 100 | 1009.8 |
| 20260506060526 | 55 | 163 | 0.9 | 4.3 | 0.00 | 0.04 | 0.00 | 100 | 1009.8 |
| 20260506051038 | 57 | 191 | 2.6 | 6.1 | 0.00 | 0.04 | 0.00 | 98 | 1010.3 |
| 20260506050559 | 57 | 134 | 1.7 | 7.8 | 0.00 | 0.04 | 0.00 | 98 | 1010.2 |
| 20260506045029 | 57 | 144 | 2.6 | 6.1 | 0.00 | 0.04 | 0.00 | 98 | 1010.2 |
| 20260506044529 | 57 | 292 | 1.7 | 6.1 | 0.00 | 0.04 | 0.00 | 98 | 1010.3 |
| 20260506044049 | 57 | 182 | 1.7 | 11.3 | 0.00 | 0.04 | 0.00 | 98 | 1010.2 |
| 20260506043533 | 57 | 196 | 2.6 | 8.7 | 0.00 | 0.04 | 0.00 | 98 | 1010.3 |
| 20260506043033 | 57 | 157 | 1.7 | 4.3 | 0.00 | 0.04 | 0.00 | 98 | 1010.4 |
| 20260506042535 | 58 | 157 | 1.7 | 4.3 | 0.00 | 0.04 | 0.00 | 98 | 1010.3 |
| 20260506042035 | 58 | 167 | 0.9 | 6.1 | 0.00 | 0.04 | 0.00 | 97 | 1010.3 |
| 20260506041536 | 58 | 167 | 1.7 | 6.1 | 0.00 | 0.04 | 0.00 | 97 | 1010.3 |
| 20260506041036 | 58 | 142 | 1.7 | 4.3 | 0.00 | 0.04 | 0.00 | 98 | 1010.3 |
| 20260506040536 | 58 | 122 | 1.7 | 3.5 | 0.00 | 0.04 | 0.00 | 97 | 1010.3 |
| 20260506040037 | 58 | 121 | 1.7 | 5.2 | 0.00 | 0.04 | 0.00 | 97 | 1010.3 |
| 20260506035542 | 58 | 118 | 2.6 | 7.0 | 0.00 | 0.04 | 0.04 | 97 | 1010.3 |
| 20260506035044 | 58 | 168 | 2.6 | 7.0 | 0.00 | 0.04 | 0.04 | 97 | 1010.3 |
| 20260506034544 | 58 | 126 | 2.6 | 6.1 | 0.00 | 0.04 | 0.04 | 97 | 1010.4 |
| 20260506034025 | 58 | 143 | 2.6 | 6.1 | 0.00 | 0.04 | 0.04 | 97 | 1010.3 |
| 20260506033526 | 58 | 186 | 2.6 | 6.1 | 0.00 | 0.04 | 0.04 | 97 | 1010.4 |
| 20260506032539 | 58 | 134 | 1.7 | 9.6 | 0.00 | 0.04 | 0.04 | 97 | 1010.4 |
| 20260506032039 | 58 | 159 | 1.7 | 9.6 | 0.00 | 0.04 | 0.04 | 97 | 1010.3 |
| 20260506031601 | 58 | 126 | 1.7 | 9.6 | 0.00 | 0.04 | 0.04 | 97 | 1010.3 |
| 20260506031040 | 58 | 126 | 1.7 | 6.1 | 0.00 | 0.04 | 0.04 | 97 | 1010.4 |
| 20260506030602 | 58 | 167 | 2.6 | 6.1 | 0.00 | 0.04 | 0.04 | 97 | 1010.3 |
| 20260506030040 | 58 | 168 | 1.7 | 6.1 | 0.00 | 0.04 | 0.04 | 97 | 1010.3 |
| 20260506025601 | 58 | 171 | 1.7 | 6.1 | 0.00 | 0.04 | 0.04 | 97 | 1010.2 |
| 20260506025044 | 58 | 334 | 1.7 | 5.2 | 0.00 | 0.04 | 0.04 | 97 | 1010.3 |
| 20260506024525 | 58 | 130 | 1.7 | 3.5 | 0.00 | 0.04 | 0.04 | 96 | 1010.2 |
| 20260506024025 | 58 | 130 | 1.7 | 5.2 | 0.00 | 0.04 | 0.04 | 96 | 1010.2 |
| 20260506023526 | 58 | 351 | 1.7 | 4.3 | 0.00 | 0.04 | 0.04 | 96 | 1010.2 |
| 20260506023047 | 59 | 114 | 1.7 | 7.0 | 0.00 | 0.04 | 0.04 | 96 | 1010.2 |
| 20260506022528 | 59 | 157 | 1.7 | 7.0 | 0.00 | 0.04 | 0.04 | 96 | 1010.2 |
| 20260506022028 | 59 | 149 | 1.7 | 4.3 | 0.00 | 0.04 | 0.04 | 95 | 1010.1 |
| 20260506021528 | 59 | 184 | 0.9 | 3.5 | 0.00 | 0.04 | 0.04 | 95 | 1010.1 |
| 20260506021028 | 59 | 153 | 2.6 | 7.8 | 0.00 | 0.04 | 0.04 | 96 | 1010.3 |
| 20260506020529 | 60 | 206 | 0.9 | 7.8 | 0.00 | 0.04 | 0.04 | 95 | 1010.2 |
| 20260506020049 | 59 | 90 | 1.7 | 4.3 | 0.00 | 0.04 | 0.04 | 95 | 1010.1 |
| 20260506015529 | 59 | 173 | 1.7 | 5.2 | 0.00 | 0.04 | 0.04 | 96 | 1010.2 |
| 20260506015049 | 59 | 165 | 2.6 | 5.2 | 0.00 | 0.04 | 0.04 | 96 | 1010.2 |
| 20260506014529 | 60 | 179 | 0.9 | 1.7 | 0.00 | 0.04 | 0.04 | 95 | 1010.1 |
| 20260506014029 | 60 | 179 | 0.9 | 3.5 | 0.00 | 0.04 | 0.04 | 95 | 1009.9 |
| 20260506013550 | 60 | 179 | 0.9 | 3.5 | 0.00 | 0.04 | 0.04 | 95 | 1010.0 |
| 20260506013034 | 59 | 141 | 0.9 | 1.7 | 0.00 | 0.04 | 0.04 | 95 | 1010.0 |
| 20260506012534 | 59 | 141 | 0.0 | 0.9 | 0.00 | 0.04 | 0.04 | 95 | 1009.9 |
| 20260506012035 | 59 | 141 | 0.0 | 0.9 | 0.00 | 0.04 | 0.04 | 95 | 1009.8 |
| 20260506011535 | 59 | 141 | 0.0 | 0.9 | 0.00 | 0.04 | 0.04 | 95 | 1009.7 |
| 20260506011055 | 59 | 141 | 0.0 | 0.9 | 0.00 | 0.04 | 0.04 | 95 | 1009.7 |
| 20260506010536 | 59 | 141 | 0.0 | 1.7 | 0.00 | 0.04 | 0.04 | 95 | 1009.7 |
| 20260506010036 | 59 | 141 | 0.9 | 1.7 | 0.00 | 0.04 | 0.04 | 94 | 1009.7 |
| 20260506005537 | 59 | 141 | 0.0 | 0.9 | 0.00 | 0.04 | 0.04 | 94 | 1009.6 |
| 20260506005037 | 59 | 141 | 0.0 | 0.9 | 0.00 | 0.04 | 0.04 | 93 | 1009.6 |
| 20260506004538 | 60 | 141 | 0.9 | 1.7 | 0.00 | 0.04 | 0.04 | 93 | 1009.5 |
| 20260506003549 | 60 | 141 | 0.9 | 3.5 | 0.00 | 0.04 | 0.04 | 92 | 1009.4 |
| 20260506003029 | 61 | 141 | 1.7 | 6.1 | 0.00 | 0.04 | 0.04 | 92 | 1009.3 |
| 20260506002529 | 61 | 126 | 0.9 | 6.1 | 0.00 | 0.04 | 0.04 | 91 | 1009.2 |
| 20260506002029 | 61 | 147 | 0.9 | 4.3 | 0.00 | 0.04 | 0.04 | 91 | 1009.1 |
| 20260506001529 | 61 | 163 | 1.7 | 5.2 | 0.00 | 0.04 | 0.04 | 91 | 1009.0 |
| 20260506001030 | 61 | 182 | 0.9 | 4.3 | 0.00 | 0.04 | 0.04 | 90 | 1008.9 |
| 20260506000534 | 62 | 182 | 1.7 | 4.3 | 0.00 | 0.04 | 0.04 | 89 | 1008.8 |
| 20260506000035 | 62 | 146 | 0.9 | 3.5 | 0.00 | 0.04 | 0.04 | 88 | 1008.8 |
| 20260505235535 | 62 | 188 | 0.9 | 6.1 | 0.00 | 0.04 | 0.04 | 88 | 1008.8 |
| 20260505235035 | 62 | 169 | 2.6 | 7.8 | 0.00 | 0.04 | 0.04 | 88 | 1008.7 |
| 20260505234555 | 63 | 161 | 2.6 | 11.3 | 0.00 | 0.04 | 0.04 | 87 | 1008.6 |
| 20260505234033 | 63 | 126 | 2.6 | 11.3 | 0.00 | 0.04 | 0.04 | 87 | 1008.5 |
| 20260505233552 | 64 | 140 | 3.5 | 5.2 | 0.00 | 0.04 | 0.04 | 87 | 1008.5 |
| 20260505233031 | 64 | 152 | 2.6 | 6.1 | 0.00 | 0.04 | 0.04 | 87 | 1008.5 |
| 20260505232529 | 64 | 151 | 2.6 | 7.8 | 0.00 | 0.04 | 0.04 | 86 | 1008.4 |
| 20260505232029 | 65 | 118 | 2.6 | 6.1 | 0.00 | 0.04 | 0.04 | 85 | 1008.5 |
| 20260505231529 | 65 | 160 | 1.7 | 7.8 | 0.00 | 0.04 | 0.04 | 84 | 1008.4 |
| 20260505231028 | 66 | 113 | 4.3 | 8.7 | 0.00 | 0.04 | 0.04 | 83 | 1008.2 |
| 20260505230528 | 66 | 119 | 2.6 | 5.2 | 0.00 | 0.04 | 0.04 | 83 | 1008.2 |
| 20260505230029 | 66 | 171 | 2.6 | 6.1 | 0.00 | 0.04 | 0.04 | 84 | 1008.1 |
| 20260505225529 | 66 | 155 | 1.7 | 10.4 | 0.00 | 0.04 | 0.04 | 83 | 1008.1 |
| 20260505225034 | 67 | 165 | 3.5 | 10.4 | 0.00 | 0.04 | 0.04 | 81 | 1008.0 |
| 20260505224535 | 67 | 167 | 4.3 | 13.0 | 0.00 | 0.04 | 0.04 | 81 | 1008.0 |
| 20260505223525 | 68 | 170 | 4.3 | 8.7 | 0.00 | 0.04 | 0.04 | 79 | 1007.8 |
| 20260505223028 | 68 | 115 | 3.5 | 7.8 | 0.00 | 0.04 | 0.04 | 79 | 1007.8 |
| 20260505222528 | 68 | 178 | 3.5 | 8.7 | 0.00 | 0.04 | 0.04 | 78 | 1007.8 |
| 20260505222028 | 69 | 182 | 4.3 | 12.2 | 0.00 | 0.04 | 0.04 | 78 | 1007.6 |
| 20260505221528 | 69 | 180 | 4.3 | 8.7 | 0.00 | 0.04 | 0.04 | 77 | 1007.5 |
| 20260505221029 | 70 | 168 | 4.3 | 10.4 | 0.00 | 0.04 | 0.04 | 77 | 1007.6 |
| 20260505220529 | 70 | 199 | 4.3 | 11.3 | 0.00 | 0.04 | 0.04 | 77 | 1007.6 |
| 20260505220028 | 70 | 145 | 3.5 | 9.6 | 0.00 | 0.04 | 0.04 | 75 | 1007.6 |
| 20260505215527 | 70 | 172 | 3.5 | 9.6 | 0.00 | 0.04 | 0.04 | 76 | 1007.7 |
| 20260505214538 | 71 | 138 | 4.3 | 9.6 | 0.00 | 0.04 | 0.04 | 73 | 1007.8 |
| 20260505214038 | 71 | 155 | 4.3 | 9.6 | 0.00 | 0.04 | 0.04 | 73 | 1007.8 |
| 20260505213539 | 71 | 160 | 2.6 | 7.8 | 0.00 | 0.04 | 0.04 | 74 | 1007.9 |
| 20260505213038 | 72 | 142 | 3.5 | 12.2 | 0.00 | 0.04 | 0.04 | 72 | 1007.7 |
| 20260505212538 | 72 | 134 | 4.3 | 12.2 | 0.00 | 0.04 | 0.04 | 71 | 1007.7 |
| 20260505212041 | 72 | 178 | 5.2 | 10.4 | 0.00 | 0.04 | 0.04 | 74 | 1007.7 |
| 20260505211033 | 72 | 173 | 5.2 | 12.2 | 0.00 | 0.04 | 0.04 | 72 | 1007.5 |
| 20260505210533 | 73 | 128 | 4.3 | 8.7 | 0.00 | 0.04 | 0.04 | 72 | 1007.5 |
| 20260505210033 | 73 | 140 | 3.5 | 8.7 | 0.00 | 0.04 | 0.04 | 71 | 1007.6 |
| 20260505205534 | 73 | 163 | 5.2 | 8.7 | 0.00 | 0.04 | 0.04 | 71 | 1007.5 |
| 20260505205054 | 74 | 152 | 4.3 | 12.2 | 0.00 | 0.04 | 0.04 | 72 | 1007.6 |
| 20260505204533 | 74 | 209 | 5.2 | 12.2 | 0.00 | 0.04 | 0.04 | 70 | 1007.5 |
| 20260505204054 | 74 | 126 | 2.6 | 11.3 | 0.00 | 0.04 | 0.04 | 72 | 1007.6 |
| 20260505203532 | 74 | 123 | 4.3 | 12.2 | 0.00 | 0.04 | 0.04 | 70 | 1007.5 |
| 20260505203033 | 75 | 144 | 6.1 | 12.2 | 0.00 | 0.04 | 0.04 | 68 | 1007.5 |
| 20260505202533 | 75 | 179 | 4.3 | 12.2 | 0.00 | 0.04 | 0.04 | 69 | 1007.5 |